Location: Wells
(51.2093°N, 2.6446°W)
Time: 10:52:42
(UTC+01:00)

LilacSat-2 - Pass Details

Date: 14 March 2026
Orbit: 412 x 424 km, 97.5° (Epoch: 20 April)

Event Time Altitude Azimuth Distance (km) Brightness Sun altitude
Rises 19:42:40 0° 187° (S) 2,391 ? -14.6°
Reaches altitude 10° 19:44:48 10° 197° (SSW) 1,531 ? -15.0°
Maximum altitude 19:47:47 32° 263° (W) 769 ? -15.4°
Drops below altitude 10° 19:50:48 10° 328° (NNW) 1,545 ? -15.9°
Sets 19:52:58 0° 339° (NNW) 2,418 ? -16.2°
